Вернуться в каталог

STARLINK-37661

АктивенСвязьSSO
NORAD 69147·PAYLOAD·🇺🇸 United States

Запущен May 20, 2026 с Vandenberg Space Force Base

Loading…

Ближайшие Пролёты (ближайшие 24 часа)

TLE

СвежийSource: CelesTrak SupGP

Эпоха: Sep 14, 2026, 22:32 UTC

1 69147C 26110Z   26257.93937500  .00088006  00000+0  27319-2 0  2577
2 69147  97.2852  93.1501 0001628  91.7124  97.6072 15.33395102    16

Отслеживайте STARLINK-37661 в реальном времени с AllMySat

Download on the App Store